Time,TemperatureF,DewpointF,PressureIn,WindDirection,WindDirectionDegrees,WindSpeedMPH,WindSpeedGustMPH,Humidity,HourlyPrecipIn,Conditions,Clouds,dailyrainin,SoftwareType,DateUTC
2013-03-06 00:00:00,33.0,26.0,30.04,NNW,337,4.0,15.0,75,0.00,,,0.00,Rainwise IP-100,2013-03-06 06:00:00,
2013-03-06 00:05:00,33.0,26.0,30.04,WNW,292,11.0,15.0,75,0.00,,,0.00,Rainwise IP-100,2013-03-06 06:05:00,
2013-03-06 00:10:00,33.0,26.0,30.04,SW,225,9.0,22.0,73,0.00,,,0.00,Rainwise IP-100,2013-03-06 06:10:00,
2013-03-06 00:15:00,33.0,26.0,30.04,WSW,247,6.0,23.0,73,0.00,,,0.00,Rainwise IP-100,2013-03-06 06:15:00,
2013-03-06 00:20:00,33.0,26.0,30.04,WSW,247,11.0,17.0,74,0.00,,,0.00,Rainwise IP-100,2013-03-06 06:20:00,
2013-03-06 00:25:00,33.0,26.0,30.04,WSW,247,5.0,23.0,74,0.00,,,0.00,Rainwise IP-100,2013-03-06 06:25:00,
2013-03-06 00:30:00,33.0,26.0,30.04,West,270,6.0,22.0,75,0.00,,,0.00,Rainwise IP-100,2013-03-06 06:30:00,
2013-03-06 00:31:00,33.0,26.0,30.04,West,270,6.0,22.0,75,0.00,,,0.00,Rainwise IP-100,2013-03-06 06:31:00,
2013-03-06 00:36:00,33.0,26.0,30.04,NW,315,10.0,16.0,74,0.00,,,0.00,Rainwise IP-100,2013-03-06 06:36:00,
2013-03-06 00:41:00,33.0,26.0,30.04,North,360,12.0,17.0,74,0.00,,,0.00,Rainwise IP-100,2013-03-06 06:41:00,
2013-03-06 00:46:00,33.0,26.0,30.04,West,270,5.0,17.0,73,0.00,,,0.00,Rainwise IP-100,2013-03-06 06:46:00,
2013-03-06 00:51:00,33.0,26.0,30.05,West,270,3.0,11.0,75,0.00,,,0.00,Rainwise IP-100,2013-03-06 06:51:00,
2013-03-06 00:56:00,33.0,26.0,30.05,WNW,292,4.0,12.0,75,0.00,,,0.00,Rainwise IP-100,2013-03-06 06:56:00,
2013-03-06 01:01:00,33.0,26.0,30.05,West,270,6.0,15.0,75,0.00,,,0.00,Rainwise IP-100,2013-03-06 07:01:00,
2013-03-06 01:06:00,33.0,26.0,30.05,North,360,6.0,12.0,76,0.00,,,0.00,Rainwise IP-100,2013-03-06 07:06:00,
2013-03-06 01:11:00,33.0,26.0,30.05,WSW,247,7.0,15.0,76,0.00,,,0.00,Rainwise IP-100,2013-03-06 07:11:00,
2013-03-06 01:16:00,33.0,26.0,30.05,West,270,10.0,14.0,76,0.00,,,0.00,Rainwise IP-100,2013-03-06 07:16:00,
2013-03-06 01:21:00,33.0,28.0,30.06,WNW,292,5.0,13.0,77,0.00,,,0.00,Rainwise IP-100,2013-03-06 07:21:00,
2013-03-06 01:26:00,33.0,28.0,30.06,NW,315,6.0,9.0,77,0.00,,,0.00,Rainwise IP-100,2013-03-06 07:26:00,
2013-03-06 01:31:00,33.0,28.0,30.06,South,180,2.0,8.0,77,0.00,,,0.00,Rainwise IP-100,2013-03-06 07:31:00,
2013-03-06 01:36:00,33.0,26.0,30.06,West,270,7.0,17.0,75,0.00,,,0.00,Rainwise IP-100,2013-03-06 07:36:00,
2013-03-06 01:41:00,33.0,26.0,30.06,NW,315,6.0,18.0,75,0.00,,,0.00,Rainwise IP-100,2013-03-06 07:41:00,
2013-03-06 01:46:00,33.0,26.0,30.06,NW,315,7.0,12.0,75,0.00,,,0.00,Rainwise IP-100,2013-03-06 07:46:00,
2013-03-06 01:51:00,33.0,26.0,30.06,North,360,3.0,17.0,76,0.00,,,0.00,Rainwise IP-100,2013-03-06 07:51:00,
2013-03-06 01:56:00,33.0,26.0,30.06,WNW,292,4.0,19.0,75,0.00,,,0.00,Rainwise IP-100,2013-03-06 07:56:00,
2013-03-06 02:01:00,33.0,24.0,30.06,NW,315,4.0,20.0,70,0.00,,,0.00,Rainwise IP-100,2013-03-06 08:01:00,
2013-03-06 02:06:00,33.0,24.0,30.06,NW,315,7.0,17.0,70,0.00,,,0.00,Rainwise IP-100,2013-03-06 08:06:00,
2013-03-06 02:11:00,33.0,24.0,30.06,NW,315,2.0,13.0,70,0.00,,,0.00,Rainwise IP-100,2013-03-06 08:11:00,
2013-03-06 02:16:00,33.0,24.0,30.06,West,270,10.0,17.0,70,0.00,,,0.00,Rainwise IP-100,2013-03-06 08:16:00,
2013-03-06 02:21:00,33.0,24.0,30.06,WNW,292,7.0,17.0,69,0.00,,,0.00,Rainwise IP-100,2013-03-06 08:21:00,
2013-03-06 02:26:00,33.0,24.0,30.06,South,180,4.0,20.0,70,0.00,,,0.00,Rainwise IP-100,2013-03-06 08:26:00,
2013-03-06 02:31:00,33.0,24.0,30.06,WNW,292,9.0,16.0,70,0.00,,,0.00,Rainwise IP-100,2013-03-06 08:31:00,
2013-03-06 02:36:00,33.0,24.0,30.06,WNW,292,9.0,21.0,70,0.00,,,0.00,Rainwise IP-100,2013-03-06 08:36:00,
2013-03-06 02:41:00,33.0,24.0,30.06,West,270,2.0,22.0,71,0.00,,,0.00,Rainwise IP-100,2013-03-06 08:41:00,
2013-03-06 02:46:00,33.0,26.0,30.06,West,270,7.0,19.0,72,0.00,,,0.00,Rainwise IP-100,2013-03-06 08:46:00,
2013-03-06 02:51:00,33.0,26.0,30.06,NW,315,7.0,12.0,72,0.00,,,0.00,Rainwise IP-100,2013-03-06 08:51:00,
2013-03-06 02:57:00,33.0,24.0,30.06,NW,315,9.0,13.0,71,0.00,,,0.00,Rainwise IP-100,2013-03-06 08:57:00,
2013-03-06 03:02:00,33.0,26.0,30.07,West,270,6.0,17.0,72,0.00,,,0.00,Rainwise IP-100,2013-03-06 09:02:00,
2013-03-06 03:07:00,33.0,26.0,30.07,WNW,292,9.0,12.0,72,0.00,,,0.00,Rainwise IP-100,2013-03-06 09:07:00,
2013-03-06 03:12:00,33.0,24.0,30.07,West,270,7.0,13.0,71,0.00,,,0.00,Rainwise IP-100,2013-03-06 09:12:00,
2013-03-06 03:17:00,33.0,24.0,30.07,WNW,292,14.0,29.0,69,0.00,,,0.00,Rainwise IP-100,2013-03-06 09:17:00,
2013-03-06 03:22:00,33.0,24.0,30.07,WNW,292,12.0,15.0,69,0.00,,,0.00,Rainwise IP-100,2013-03-06 09:22:00,
2013-03-06 03:27:00,33.0,24.0,30.07,WNW,292,6.0,15.0,71,0.00,,,0.00,Rainwise IP-100,2013-03-06 09:27:00,
2013-03-06 03:32:00,33.0,24.0,30.08,West,270,4.0,15.0,69,0.00,,,0.00,Rainwise IP-100,2013-03-06 09:32:00,
2013-03-06 03:37:00,33.0,24.0,30.08,NW,315,8.0,16.0,70,0.00,,,0.00,Rainwise IP-100,2013-03-06 09:37:00,
2013-03-06 03:42:00,33.0,24.0,30.09,WSW,247,2.0,20.0,70,0.00,,,0.00,Rainwise IP-100,2013-03-06 09:42:00,
2013-03-06 03:47:00,33.0,24.0,30.09,NNW,337,3.0,13.0,71,0.00,,,0.00,Rainwise IP-100,2013-03-06 09:47:00,
2013-03-06 03:52:00,33.0,24.0,30.09,NW,315,9.0,16.0,70,0.00,,,0.00,Rainwise IP-100,2013-03-06 09:52:00,
2013-03-06 03:57:00,33.0,24.0,30.09,NW,315,7.0,12.0,70,0.00,,,0.00,Rainwise IP-100,2013-03-06 09:57:00,
2013-03-06 04:02:00,33.0,24.0,30.09,NW,315,13.0,19.0,70,0.00,,,0.00,Rainwise IP-100,2013-03-06 10:02:00,
2013-03-06 04:07:00,33.0,24.0,30.09,West,270,8.0,17.0,69,0.00,,,0.00,Rainwise IP-100,2013-03-06 10:07:00,
2013-03-06 04:13:00,32.0,24.0,30.10,WNW,292,5.0,13.0,70,0.00,,,0.00,Rainwise IP-100,2013-03-06 10:13:00,
2013-03-06 04:18:00,32.0,24.0,30.10,NW,315,8.0,10.0,70,0.00,,,0.00,Rainwise IP-100,2013-03-06 10:18:00,
2013-03-06 04:23:00,32.0,24.0,30.10,NNW,337,6.0,12.0,71,0.00,,,0.00,Rainwise IP-100,2013-03-06 10:23:00,
2013-03-06 04:28:00,33.0,24.0,30.11,WNW,292,5.0,17.0,71,0.00,,,0.00,Rainwise IP-100,2013-03-06 10:28:00,
2013-03-06 04:33:00,32.0,24.0,30.11,West,270,7.0,13.0,71,0.00,,,0.00,Rainwise IP-100,2013-03-06 10:33:00,
2013-03-06 04:38:00,33.0,24.0,30.11,West,270,9.0,14.0,70,0.00,,,0.00,Rainwise IP-100,2013-03-06 10:38:00,
2013-03-06 04:43:00,32.0,24.0,30.11,WSW,247,5.0,15.0,71,0.00,,,0.00,Rainwise IP-100,2013-03-06 10:43:00,
2013-03-06 04:48:00,32.0,24.0,30.13,West,270,6.0,13.0,71,0.00,,,0.00,Rainwise IP-100,2013-03-06 10:48:00,
2013-03-06 04:53:00,32.0,24.0,30.13,North,360,1.0,16.0,71,0.00,,,0.00,Rainwise IP-100,2013-03-06 10:53:00,
2013-03-06 04:58:00,32.0,24.0,30.13,West,270,3.0,15.0,71,0.00,,,0.00,Rainwise IP-100,2013-03-06 10:58:00,
2013-03-06 05:03:00,32.0,24.0,30.13,SW,225,1.0,14.0,71,0.00,,,0.00,Rainwise IP-100,2013-03-06 11:03:00,
2013-03-06 05:08:00,32.0,24.0,30.14,NNW,337,0.0,12.0,71,0.00,,,0.00,Rainwise IP-100,2013-03-06 11:08:00,
2013-03-06 05:13:00,32.0,24.0,30.14,West,270,6.0,10.0,71,0.00,,,0.00,Rainwise IP-100,2013-03-06 11:13:00,
2013-03-06 05:18:00,32.0,24.0,30.14,WNW,292,4.0,8.0,72,0.00,,,0.00,Rainwise IP-100,2013-03-06 11:18:00,
2013-03-06 05:23:00,32.0,24.0,30.14,NW,315,5.0,10.0,72,0.00,,,0.00,Rainwise IP-100,2013-03-06 11:23:00,
2013-03-06 05:28:00,32.0,24.0,30.15,WSW,247,7.0,19.0,72,0.00,,,0.00,Rainwise IP-100,2013-03-06 11:28:00,
2013-03-06 05:33:00,32.0,24.0,30.15,West,270,5.0,15.0,71,0.00,,,0.00,Rainwise IP-100,2013-03-06 11:33:00,
2013-03-06 05:38:00,32.0,24.0,30.16,West,270,9.0,13.0,72,0.00,,,0.00,Rainwise IP-100,2013-03-06 11:38:00,
2013-03-06 05:43:00,32.0,24.0,30.16,West,270,5.0,14.0,72,0.00,,,0.00,Rainwise IP-100,2013-03-06 11:43:00,
2013-03-06 05:48:00,32.0,24.0,30.17,NNW,337,1.0,15.0,72,0.00,,,0.00,Rainwise IP-100,2013-03-06 11:48:00,
2013-03-06 05:53:00,32.0,24.0,30.17,WNW,292,19.0,19.0,72,0.00,,,0.00,Rainwise IP-100,2013-03-06 11:53:00,
2013-03-06 05:58:00,32.0,24.0,30.17,NW,315,6.0,19.0,72,0.00,,,0.00,Rainwise IP-100,2013-03-06 11:58:00,
2013-03-06 06:03:00,32.0,24.0,30.17,West,270,3.0,15.0,73,0.00,,,0.00,Rainwise IP-100,2013-03-06 12:03:00,
2013-03-06 06:08:00,32.0,24.0,30.18,NNW,337,7.0,12.0,73,0.00,,,0.00,Rainwise IP-100,2013-03-06 12:08:00,
2013-03-06 06:13:00,32.0,24.0,30.18,NW,315,3.0,14.0,74,0.00,,,0.00,Rainwise IP-100,2013-03-06 12:13:00,
2013-03-06 06:18:00,32.0,24.0,30.18,SW,225,8.0,13.0,73,0.00,,,0.00,Rainwise IP-100,2013-03-06 12:18:00,
2013-03-06 06:23:00,32.0,24.0,30.18,WNW,292,3.0,20.0,73,0.00,,,0.00,Rainwise IP-100,2013-03-06 12:23:00,
2013-03-06 06:28:00,32.0,24.0,30.18,NW,315,7.0,9.0,74,0.00,,,0.00,Rainwise IP-100,2013-03-06 12:28:00,
2013-03-06 06:33:00,32.0,24.0,30.18,NNW,337,8.0,12.0,74,0.00,,,0.00,Rainwise IP-100,2013-03-06 12:33:00,
2013-03-06 06:38:00,32.0,24.0,30.19,WSW,247,6.0,17.0,74,0.00,,,0.00,Rainwise IP-100,2013-03-06 12:38:00,
2013-03-06 06:43:00,32.0,26.0,30.19,NW,315,6.0,19.0,75,0.00,,,0.00,Rainwise IP-100,2013-03-06 12:43:00,
2013-03-06 06:48:00,32.0,24.0,30.19,NNW,337,6.0,13.0,74,0.00,,,0.00,Rainwise IP-100,2013-03-06 12:48:00,
2013-03-06 06:53:00,32.0,24.0,30.19,NW,315,9.0,13.0,74,0.00,,,0.00,Rainwise IP-100,2013-03-06 12:53:00,
2013-03-06 06:58:00,32.0,26.0,30.20,NW,315,2.0,15.0,75,0.00,,,0.00,Rainwise IP-100,2013-03-06 12:58:00,
2013-03-06 07:03:00,32.0,26.0,30.20,West,270,8.0,12.0,75,0.00,,,0.00,Rainwise IP-100,2013-03-06 13:03:00,
2013-03-06 07:08:00,32.0,26.0,30.21,NW,315,1.0,16.0,75,0.00,,,0.00,Rainwise IP-100,2013-03-06 13:08:00,
2013-03-06 07:13:00,32.0,26.0,30.21,NW,315,8.0,14.0,75,0.00,,,0.00,Rainwise IP-100,2013-03-06 13:13:00,
2013-03-06 07:18:00,32.0,26.0,30.21,WNW,292,5.0,13.0,75,0.00,,,0.00,Rainwise IP-100,2013-03-06 13:18:00,
2013-03-06 07:23:00,32.0,26.0,30.21,NW,315,1.0,9.0,75,0.00,,,0.00,Rainwise IP-100,2013-03-06 13:23:00,
2013-03-06 07:28:00,33.0,26.0,30.21,North,360,2.0,12.0,75,0.00,,,0.00,Rainwise IP-100,2013-03-06 13:28:00,
2013-03-06 07:33:00,32.0,26.0,30.21,NNW,337,6.0,15.0,75,0.00,,,0.00,Rainwise IP-100,2013-03-06 13:33:00,
2013-03-06 07:38:00,33.0,26.0,30.21,NW,315,10.0,10.0,75,0.00,,,0.00,Rainwise IP-100,2013-03-06 13:38:00,
2013-03-06 07:43:00,32.0,26.0,30.21,WNW,292,6.0,12.0,75,0.00,,,0.00,Rainwise IP-100,2013-03-06 13:43:00,
2013-03-06 07:48:00,33.0,26.0,30.22,WNW,292,8.0,12.0,75,0.00,,,0.00,Rainwise IP-100,2013-03-06 13:48:00,
2013-03-06 07:53:00,33.0,26.0,30.22,NNE,22,3.0,14.0,74,0.00,,,0.00,Rainwise IP-100,2013-03-06 13:53:00,
2013-03-06 07:58:00,33.0,26.0,30.23,NW,315,5.0,11.0,76,0.00,,,0.00,Rainwise IP-100,2013-03-06 13:58:00,
2013-03-06 08:03:00,33.0,26.0,30.23,NNW,337,10.0,13.0,74,0.00,,,0.00,Rainwise IP-100,2013-03-06 14:03:00,
2013-03-06 08:08:00,33.0,26.0,30.23,WNW,292,7.0,10.0,76,0.00,,,0.00,Rainwise IP-100,2013-03-06 14:08:00,
2013-03-06 08:13:00,33.0,26.0,30.23,NNW,337,7.0,13.0,76,0.00,,,0.00,Rainwise IP-100,2013-03-06 14:13:00,
2013-03-06 08:18:00,33.0,26.0,30.24,West,270,8.0,10.0,76,0.00,,,0.00,Rainwise IP-100,2013-03-06 14:18:00,
2013-03-06 08:23:00,33.0,26.0,30.24,West,270,6.0,14.0,75,0.00,,,0.00,Rainwise IP-100,2013-03-06 14:23:00,
2013-03-06 08:28:00,33.0,26.0,30.25,NW,315,7.0,16.0,75,0.00,,,0.00,Rainwise IP-100,2013-03-06 14:28:00,
2013-03-06 08:33:00,33.0,26.0,30.25,NNE,22,4.0,12.0,76,0.00,,,0.00,Rainwise IP-100,2013-03-06 14:33:00,
2013-03-06 08:38:00,33.0,26.0,30.25,WNW,292,3.0,16.0,75,0.00,,,0.00,Rainwise IP-100,2013-03-06 14:38:00,
2013-03-06 08:43:00,33.0,26.0,30.25,WSW,247,4.0,12.0,75,0.00,,,0.00,Rainwise IP-100,2013-03-06 14:43:00,
2013-03-06 08:48:00,33.0,26.0,30.26,NW,315,5.0,12.0,75,0.00,,,0.00,Rainwise IP-100,2013-03-06 14:48:00,
2013-03-06 08:53:00,33.0,26.0,30.26,NW,315,6.0,15.0,75,0.00,,,0.00,Rainwise IP-100,2013-03-06 14:53:00,
2013-03-06 08:58:00,33.0,26.0,30.26,NW,315,3.0,14.0,75,0.00,,,0.00,Rainwise IP-100,2013-03-06 14:58:00,
2013-03-06 09:03:00,33.0,26.0,30.26,NW,315,6.0,11.0,75,0.00,,,0.00,Rainwise IP-100,2013-03-06 15:03:00,
2013-03-06 09:08:00,33.0,26.0,30.26,NW,315,4.0,9.0,75,0.00,,,0.00,Rainwise IP-100,2013-03-06 15:08:00,
2013-03-06 09:13:00,33.0,26.0,30.27,NW,315,9.0,10.0,74,0.00,,,0.00,Rainwise IP-100,2013-03-06 15:13:00,
2013-03-06 09:18:00,33.0,26.0,30.27,NW,315,4.0,17.0,75,0.00,,,0.00,Rainwise IP-100,2013-03-06 15:18:00,
2013-03-06 09:23:00,33.0,26.0,30.27,WNW,292,3.0,16.0,76,0.00,,,0.00,Rainwise IP-100,2013-03-06 15:23:00,
2013-03-06 09:28:00,34.0,28.0,30.27,WNW,292,5.0,11.0,74,0.00,,,0.00,Rainwise IP-100,2013-03-06 15:28:00,
2013-03-06 09:33:00,34.0,28.0,30.27,WNW,292,6.0,15.0,75,0.00,,,0.00,Rainwise IP-100,2013-03-06 15:33:00,
2013-03-06 09:38:00,34.0,28.0,30.27,NNW,337,1.0,9.0,75,0.00,,,0.00,Rainwise IP-100,2013-03-06 15:38:00,
2013-03-06 09:43:00,35.0,28.0,30.28,North,360,4.0,9.0,75,0.00,,,0.00,Rainwise IP-100,2013-03-06 15:43:00,
2013-03-06 09:48:00,35.0,28.0,30.27,North,360,5.0,9.0,73,0.00,,,0.00,Rainwise IP-100,2013-03-06 15:48:00,
2013-03-06 09:53:00,35.0,26.0,30.27,NNW,337,4.0,9.0,72,0.00,,,0.00,Rainwise IP-100,2013-03-06 15:53:00,
2013-03-06 09:58:00,36.0,28.0,30.27,South,180,1.0,8.0,72,0.00,,,0.00,Rainwise IP-100,2013-03-06 15:58:00,
2013-03-06 10:03:00,36.0,28.0,30.27,NNW,337,9.0,10.0,70,0.00,,,0.00,Rainwise IP-100,2013-03-06 16:03:00,
2013-03-06 10:08:00,36.0,28.0,30.27,North,360,6.0,11.0,72,0.00,,,0.00,Rainwise IP-100,2013-03-06 16:08:00,
2013-03-06 10:13:00,37.0,28.0,30.27,NW,315,9.0,9.0,70,0.00,,,0.00,Rainwise IP-100,2013-03-06 16:13:00,
2013-03-06 10:18:00,38.0,29.0,30.27,NW,315,4.0,11.0,69,0.00,,,0.00,Rainwise IP-100,2013-03-06 16:18:00,
2013-03-06 10:23:00,37.0,28.0,30.27,WNW,292,6.0,12.0,68,0.00,,,0.00,Rainwise IP-100,2013-03-06 16:23:00,
2013-03-06 10:28:00,38.0,29.0,30.27,NE,45,0.0,12.0,70,0.00,,,0.00,Rainwise IP-100,2013-03-06 16:28:00,
2013-03-06 10:33:00,37.0,28.0,30.27,West,270,7.0,13.0,67,0.00,,,0.00,Rainwise IP-100,2013-03-06 16:33:00,
2013-03-06 10:38:00,38.0,29.0,30.28,NW,315,1.0,16.0,68,0.00,,,0.00,Rainwise IP-100,2013-03-06 16:38:00,
2013-03-06 10:43:00,38.0,29.0,30.28,NW,315,4.0,9.0,68,0.00,,,0.00,Rainwise IP-100,2013-03-06 16:43:00,
2013-03-06 10:48:00,38.0,29.0,30.28,NNE,22,7.0,9.0,68,0.00,,,0.00,Rainwise IP-100,2013-03-06 16:48:00,
2013-03-06 10:53:00,37.0,28.0,30.28,North,360,8.0,17.0,67,0.00,,,0.00,Rainwise IP-100,2013-03-06 16:53:00,
2013-03-06 10:58:00,38.0,28.0,30.28,North,360,8.0,14.0,67,0.00,,,0.00,Rainwise IP-100,2013-03-06 16:58:00,
2013-03-06 11:03:00,38.0,28.0,30.28,NNW,337,4.0,11.0,66,0.00,,,0.00,Rainwise IP-100,2013-03-06 17:03:00,
2013-03-06 11:08:00,38.0,28.0,30.29,West,270,1.0,10.0,65,0.00,,,0.00,Rainwise IP-100,2013-03-06 17:08:00,
2013-03-06 11:13:00,38.0,28.0,30.29,NNW,337,2.0,11.0,65,0.00,,,0.00,Rainwise IP-100,2013-03-06 17:13:00,
2013-03-06 11:18:00,38.0,28.0,30.29,North,360,7.0,10.0,66,0.00,,,0.00,Rainwise IP-100,2013-03-06 17:18:00,
2013-03-06 11:23:00,38.0,28.0,30.29,NNW,337,6.0,10.0,67,0.00,,,0.00,Rainwise IP-100,2013-03-06 17:23:00,
2013-03-06 11:28:00,38.0,28.0,30.29,WNW,292,5.0,9.0,64,0.00,,,0.00,Rainwise IP-100,2013-03-06 17:28:00,
2013-03-06 11:33:00,38.0,28.0,30.29,WNW,292,4.0,9.0,64,0.00,,,0.00,Rainwise IP-100,2013-03-06 17:33:00,
2013-03-06 11:38:00,38.0,28.0,30.30,North,360,3.0,14.0,66,0.00,,,0.00,Rainwise IP-100,2013-03-06 17:38:00,
2013-03-06 11:43:00,37.0,28.0,30.30,West,270,4.0,14.0,66,0.00,,,0.00,Rainwise IP-100,2013-03-06 17:43:00,
2013-03-06 11:48:00,38.0,28.0,30.29,NE,45,4.0,12.0,67,0.00,,,0.00,Rainwise IP-100,2013-03-06 17:48:00,
2013-03-06 11:53:00,38.0,28.0,30.29,NW,315,1.0,15.0,66,0.00,,,0.00,Rainwise IP-100,2013-03-06 17:53:00,
2013-03-06 11:58:00,38.0,28.0,30.29,NW,315,10.0,12.0,67,0.00,,,0.00,Rainwise IP-100,2013-03-06 17:58:00,
2013-03-06 12:03:00,38.0,29.0,30.29,NNW,337,2.0,10.0,69,0.00,,,0.00,Rainwise IP-100,2013-03-06 18:03:00,
2013-03-06 12:08:00,38.0,28.0,30.30,NW,315,4.0,11.0,65,0.00,,,0.00,Rainwise IP-100,2013-03-06 18:08:00,
2013-03-06 12:13:00,38.0,28.0,30.30,SW,225,6.0,10.0,67,0.00,,,0.00,Rainwise IP-100,2013-03-06 18:13:00,
2013-03-06 12:18:00,38.0,28.0,30.29,West,270,0.0,11.0,66,0.00,,,0.00,Rainwise IP-100,2013-03-06 18:18:00,
2013-03-06 12:23:00,38.0,28.0,30.29,NNW,337,7.0,11.0,65,0.00,,,0.00,Rainwise IP-100,2013-03-06 18:23:00,
2013-03-06 12:28:00,39.0,28.0,30.29,North,360,11.0,11.0,62,0.00,,,0.00,Rainwise IP-100,2013-03-06 18:28:00,
2013-03-06 12:33:00,39.0,29.0,30.29,WNW,292,4.0,11.0,65,0.00,,,0.00,Rainwise IP-100,2013-03-06 18:33:00,
2013-03-06 12:38:00,38.0,28.0,30.29,NW,315,4.0,8.0,65,0.00,,,0.00,Rainwise IP-100,2013-03-06 18:38:00,
2013-03-06 12:43:00,38.0,28.0,30.29,North,360,6.0,8.0,65,0.00,,,0.00,Rainwise IP-100,2013-03-06 18:43:00,
2013-03-06 12:48:00,38.0,28.0,30.29,West,270,2.0,12.0,67,0.00,,,0.00,Rainwise IP-100,2013-03-06 18:48:00,
2013-03-06 12:53:00,38.0,28.0,30.29,North,360,9.0,13.0,67,0.00,,,0.00,Rainwise IP-100,2013-03-06 18:53:00,
2013-03-06 12:58:00,38.0,28.0,30.29,NW,315,6.0,13.0,66,0.00,,,0.00,Rainwise IP-100,2013-03-06 18:58:00,
2013-03-06 13:03:00,38.0,28.0,30.29,North,360,4.0,9.0,66,0.00,,,0.00,Rainwise IP-100,2013-03-06 19:03:00,
2013-03-06 13:08:00,38.0,26.0,30.29,WNW,292,1.0,10.0,63,0.00,,,0.00,Rainwise IP-100,2013-03-06 19:08:00,
2013-03-06 13:13:00,38.0,26.0,30.29,NW,315,2.0,13.0,63,0.00,,,0.00,Rainwise IP-100,2013-03-06 19:13:00,
2013-03-06 13:18:00,39.0,28.0,30.29,North,360,8.0,10.0,64,0.00,,,0.00,Rainwise IP-100,2013-03-06 19:18:00,
2013-03-06 13:23:00,38.0,28.0,30.29,NNW,337,5.0,12.0,65,0.00,,,0.00,Rainwise IP-100,2013-03-06 19:23:00,
2013-03-06 13:28:00,40.0,28.0,30.28,West,270,3.0,8.0,60,0.00,,,0.00,Rainwise IP-100,2013-03-06 19:28:00,
2013-03-06 13:33:00,40.0,28.0,30.28,NW,315,1.0,11.0,61,0.00,,,0.00,Rainwise IP-100,2013-03-06 19:33:00,
2013-03-06 13:38:00,39.0,26.0,30.29,NW,315,6.0,12.0,58,0.00,,,0.00,Rainwise IP-100,2013-03-06 19:38:00,
2013-03-06 13:43:00,40.0,28.0,30.29,North,360,9.0,11.0,61,0.00,,,0.00,Rainwise IP-100,2013-03-06 19:43:00,
2013-03-06 13:48:00,39.0,28.0,30.29,North,360,10.0,10.0,63,0.00,,,0.00,Rainwise IP-100,2013-03-06 19:48:00,
2013-03-06 13:53:00,40.0,28.0,30.29,NNW,337,5.0,13.0,60,0.00,,,0.00,Rainwise IP-100,2013-03-06 19:53:00,
2013-03-06 13:58:00,40.0,28.0,30.29,NE,45,1.0,11.0,61,0.00,,,0.00,Rainwise IP-100,2013-03-06 19:58:00,
2013-03-06 14:03:00,42.0,29.0,30.29,West,270,4.0,7.0,60,0.00,,,0.00,Rainwise IP-100,2013-03-06 20:03:00,
2013-03-06 14:08:00,41.0,29.0,30.29,SSW,202,2.0,9.0,60,0.00,,,0.00,Rainwise IP-100,2013-03-06 20:08:00,
2013-03-06 14:13:00,41.0,29.0,30.29,North,360,7.0,10.0,61,0.00,,,0.00,Rainwise IP-100,2013-03-06 20:13:00,
2013-03-06 14:18:00,41.0,29.0,30.28,North,360,6.0,10.0,60,0.00,,,0.00,Rainwise IP-100,2013-03-06 20:18:00,
2013-03-06 14:23:00,41.0,29.0,30.28,NNE,22,7.0,7.0,63,0.00,,,0.00,Rainwise IP-100,2013-03-06 20:23:00,
2013-03-06 14:28:00,40.0,29.0,30.29,North,360,8.0,8.0,62,0.00,,,0.00,Rainwise IP-100,2013-03-06 20:28:00,
2013-03-06 14:33:00,39.0,28.0,30.29,North,360,7.0,10.0,63,0.00,,,0.00,Rainwise IP-100,2013-03-06 20:33:00,
2013-03-06 14:38:00,39.0,28.0,30.29,North,360,5.0,11.0,63,0.00,,,0.00,Rainwise IP-100,2013-03-06 20:38:00,
2013-03-06 14:43:00,39.0,28.0,30.29,NNE,22,6.0,9.0,62,0.00,,,0.00,Rainwise IP-100,2013-03-06 20:43:00,
2013-03-06 14:48:00,39.0,28.0,30.29,NE,45,7.0,10.0,61,0.00,,,0.00,Rainwise IP-100,2013-03-06 20:48:00,
2013-03-06 14:53:00,39.0,28.0,30.29,NE,45,6.0,10.0,61,0.00,,,0.00,Rainwise IP-100,2013-03-06 20:53:00,
2013-03-06 14:58:00,40.0,28.0,30.29,West,270,7.0,8.0,59,0.00,,,0.00,Rainwise IP-100,2013-03-06 20:58:00,
2013-03-06 15:03:00,41.0,29.0,30.29,North,360,7.0,10.0,62,0.00,,,0.00,Rainwise IP-100,2013-03-06 21:03:00,
2013-03-06 15:08:00,42.0,29.0,30.29,North,360,8.0,9.0,59,0.00,,,0.00,Rainwise IP-100,2013-03-06 21:08:00,
2013-03-06 15:13:00,41.0,28.0,30.27,NNW,337,4.0,9.0,58,0.00,,,0.00,Rainwise IP-100,2013-03-06 21:13:00,
2013-03-06 15:19:00,41.0,28.0,30.29,NNW,337,4.0,8.0,57,0.00,,,0.00,Rainwise IP-100,2013-03-06 21:19:00,
2013-03-06 15:24:00,40.0,28.0,30.29,North,360,6.0,9.0,60,0.00,,,0.00,Rainwise IP-100,2013-03-06 21:24:00,
2013-03-06 15:29:00,41.0,29.0,30.28,NNW,337,3.0,9.0,61,0.00,,,0.00,Rainwise IP-100,2013-03-06 21:29:00,
2013-03-06 15:34:00,41.0,28.0,30.28,North,360,2.0,8.0,57,0.00,,,0.00,Rainwise IP-100,2013-03-06 21:34:00,
2013-03-06 15:39:00,42.0,29.0,30.27,North,360,6.0,9.0,58,0.00,,,0.00,Rainwise IP-100,2013-03-06 21:39:00,
2013-03-06 15:44:00,42.0,28.0,30.27,NNW,337,5.0,9.0,56,0.00,,,0.00,Rainwise IP-100,2013-03-06 21:44:00,
2013-03-06 15:49:00,41.0,28.0,30.29,NE,45,7.0,10.0,57,0.00,,,0.00,Rainwise IP-100,2013-03-06 21:49:00,
2013-03-06 15:54:00,41.0,29.0,30.29,North,360,7.0,10.0,60,0.00,,,0.00,Rainwise IP-100,2013-03-06 21:54:00,
2013-03-06 15:59:00,41.0,28.0,30.29,North,360,6.0,12.0,59,0.00,,,0.00,Rainwise IP-100,2013-03-06 21:59:00,
2013-03-06 16:04:00,41.0,28.0,30.29,NW,315,4.0,9.0,59,0.00,,,0.00,Rainwise IP-100,2013-03-06 22:04:00,
2013-03-06 16:09:00,42.0,29.0,30.28,North,360,5.0,6.0,58,0.00,,,0.00,Rainwise IP-100,2013-03-06 22:09:00,
2013-03-06 16:14:00,41.0,28.0,30.28,North,360,6.0,10.0,56,0.00,,,0.00,Rainwise IP-100,2013-03-06 22:14:00,
2013-03-06 16:19:00,41.0,28.0,30.29,NNE,22,9.0,11.0,58,0.00,,,0.00,Rainwise IP-100,2013-03-06 22:19:00,
2013-03-06 16:24:00,41.0,29.0,30.29,North,360,6.0,9.0,60,0.00,,,0.00,Rainwise IP-100,2013-03-06 22:24:00,
2013-03-06 16:29:00,41.0,29.0,30.29,NNW,337,6.0,10.0,60,0.00,,,0.00,Rainwise IP-100,2013-03-06 22:29:00,
2013-03-06 16:34:00,41.0,28.0,30.29,NNE,22,3.0,6.0,59,0.00,,,0.00,Rainwise IP-100,2013-03-06 22:34:00,
2013-03-06 16:39:00,41.0,28.0,30.29,WNW,292,5.0,7.0,58,0.00,,,0.00,Rainwise IP-100,2013-03-06 22:39:00,
2013-03-06 16:44:00,40.0,28.0,30.29,NNW,337,5.0,7.0,59,0.00,,,0.00,Rainwise IP-100,2013-03-06 22:44:00,
2013-03-06 16:49:00,40.0,28.0,30.29,North,360,5.0,8.0,60,0.00,,,0.00,Rainwise IP-100,2013-03-06 22:49:00,
2013-03-06 16:54:00,40.0,28.0,30.29,NNW,337,3.0,7.0,59,0.00,,,0.00,Rainwise IP-100,2013-03-06 22:54:00,
2013-03-06 16:59:00,40.0,28.0,30.29,NNE,22,6.0,7.0,59,0.00,,,0.00,Rainwise IP-100,2013-03-06 22:59:00,
2013-03-06 17:04:00,40.0,29.0,30.29,North,360,8.0,9.0,62,0.00,,,0.00,Rainwise IP-100,2013-03-06 23:04:00,
2013-03-06 17:09:00,39.0,28.0,30.30,NNE,22,6.0,11.0,61,0.00,,,0.00,Rainwise IP-100,2013-03-06 23:09:00,
2013-03-06 17:14:00,39.0,28.0,30.30,NNE,22,5.0,9.0,64,0.00,,,0.00,Rainwise IP-100,2013-03-06 23:14:00,
2013-03-06 17:19:00,39.0,29.0,30.30,North,360,5.0,8.0,65,0.00,,,0.00,Rainwise IP-100,2013-03-06 23:19:00,
2013-03-06 17:24:00,39.0,29.0,30.30,NW,315,4.0,9.0,67,0.00,,,0.00,Rainwise IP-100,2013-03-06 23:24:00,
2013-03-06 17:29:00,39.0,29.0,30.30,NNW,337,9.0,9.0,67,0.00,,,0.00,Rainwise IP-100,2013-03-06 23:29:00,
2013-03-06 17:34:00,38.0,28.0,30.30,North,360,7.0,9.0,67,0.00,,,0.00,Rainwise IP-100,2013-03-06 23:34:00,
2013-03-06 17:39:00,38.0,28.0,30.31,NNE,22,5.0,9.0,67,0.00,,,0.00,Rainwise IP-100,2013-03-06 23:39:00,
2013-03-06 17:44:00,38.0,29.0,30.31,NNE,22,9.0,9.0,68,0.00,,,0.00,Rainwise IP-100,2013-03-06 23:44:00,
2013-03-06 17:49:00,38.0,29.0,30.31,NE,45,6.0,10.0,68,0.00,,,0.00,Rainwise IP-100,2013-03-06 23:49:00,
2013-03-06 17:54:00,38.0,29.0,30.31,ENE,67,6.0,10.0,70,0.00,,,0.00,Rainwise IP-100,2013-03-06 23:54:00,
2013-03-06 17:59:00,37.0,29.0,30.31,NE,45,8.0,17.0,71,0.00,,,0.00,Rainwise IP-100,2013-03-06 23:59:00,
2013-03-06 18:04:00,37.0,29.0,30.31,NE,45,8.0,12.0,72,0.00,,,0.00,Rainwise IP-100,2013-03-07 00:04:00,
2013-03-06 18:09:00,37.0,29.0,30.31,NE,45,3.0,11.0,73,0.00,,,0.00,Rainwise IP-100,2013-03-07 00:09:00,
2013-03-06 18:14:00,36.0,28.0,30.31,NE,45,7.0,11.0,73,0.00,,,0.00,Rainwise IP-100,2013-03-07 00:14:00,
2013-03-06 18:19:00,36.0,28.0,30.32,NNE,22,10.0,10.0,72,0.00,,,0.00,Rainwise IP-100,2013-03-07 00:19:00,
2013-03-06 18:24:00,36.0,28.0,30.32,North,360,10.0,10.0,72,0.00,,,0.00,Rainwise IP-100,2013-03-07 00:24:00,
2013-03-06 18:29:00,36.0,28.0,30.31,NE,45,10.0,15.0,73,0.00,,,0.00,Rainwise IP-100,2013-03-07 00:29:00,
2013-03-06 18:34:00,36.0,29.0,30.31,NE,45,9.0,14.0,75,0.00,,,0.00,Rainwise IP-100,2013-03-07 00:34:00,
2013-03-06 18:39:00,36.0,29.0,30.32,NE,45,4.0,10.0,74,0.00,,,0.00,Rainwise IP-100,2013-03-07 00:39:00,
2013-03-06 18:44:00,36.0,29.0,30.32,NNE,22,7.0,9.0,76,0.00,,,0.00,Rainwise IP-100,2013-03-07 00:44:00,
2013-03-06 18:49:00,36.0,29.0,30.32,NNE,22,10.0,11.0,75,0.00,,,0.00,Rainwise IP-100,2013-03-07 00:49:00,
2013-03-06 18:54:00,35.0,28.0,30.32,North,360,9.0,12.0,75,0.00,,,0.00,Rainwise IP-100,2013-03-07 00:54:00,
2013-03-06 18:59:00,36.0,29.0,30.32,NNE,22,10.0,10.0,74,0.00,,,0.00,Rainwise IP-100,2013-03-07 00:59:00,
2013-03-06 19:04:00,35.0,28.0,30.32,NE,45,7.0,11.0,76,0.00,,,0.00,Rainwise IP-100,2013-03-07 01:04:00,
2013-03-06 19:09:00,36.0,29.0,30.32,NNE,22,9.0,10.0,74,0.00,,,0.00,Rainwise IP-100,2013-03-07 01:09:00,
2013-03-06 19:14:00,35.0,28.0,30.32,NNE,22,10.0,12.0,74,0.00,,,0.00,Rainwise IP-100,2013-03-07 01:14:00,
2013-03-06 19:19:00,35.0,28.0,30.32,NNE,22,9.0,10.0,76,0.00,,,0.00,Rainwise IP-100,2013-03-07 01:19:00,
2013-03-06 19:24:00,35.0,28.0,30.32,North,360,7.0,12.0,73,0.00,,,0.00,Rainwise IP-100,2013-03-07 01:24:00,
2013-03-06 19:29:00,35.0,28.0,30.32,North,360,6.0,12.0,74,0.00,,,0.00,Rainwise IP-100,2013-03-07 01:29:00,
2013-03-06 19:34:00,35.0,28.0,30.32,North,360,7.0,10.0,74,0.00,,,0.00,Rainwise IP-100,2013-03-07 01:34:00,
2013-03-06 19:39:00,35.0,26.0,30.32,North,360,10.0,11.0,72,0.00,,,0.00,Rainwise IP-100,2013-03-07 01:39:00,
2013-03-06 19:44:00,35.0,28.0,30.32,North,360,8.0,10.0,74,0.00,,,0.00,Rainwise IP-100,2013-03-07 01:44:00,
2013-03-06 19:49:00,35.0,28.0,30.32,North,360,4.0,11.0,74,0.00,,,0.00,Rainwise IP-100,2013-03-07 01:49:00,
2013-03-06 19:54:00,35.0,28.0,30.32,NNE,22,6.0,10.0,74,0.00,,,0.00,Rainwise IP-100,2013-03-07 01:54:00,
2013-03-06 19:59:00,35.0,28.0,30.32,North,360,6.0,10.0,73,0.00,,,0.00,Rainwise IP-100,2013-03-07 01:59:00,
2013-03-06 20:04:00,35.0,28.0,30.32,NE,45,5.0,9.0,75,0.00,,,0.00,Rainwise IP-100,2013-03-07 02:04:00,
2013-03-06 20:09:00,35.0,28.0,30.32,North,360,7.0,8.0,73,0.00,,,0.00,Rainwise IP-100,2013-03-07 02:09:00,
2013-03-06 20:14:00,35.0,28.0,30.32,North,360,7.0,10.0,74,0.00,,,0.00,Rainwise IP-100,2013-03-07 02:14:00,
2013-03-06 20:19:00,35.0,28.0,30.33,North,360,7.0,9.0,73,0.00,,,0.00,Rainwise IP-100,2013-03-07 02:19:00,
2013-03-06 20:24:00,35.0,28.0,30.33,NNE,22,5.0,10.0,74,0.00,,,0.00,Rainwise IP-100,2013-03-07 02:24:00,
2013-03-06 20:29:00,35.0,28.0,30.33,North,360,4.0,7.0,76,0.00,,,0.00,Rainwise IP-100,2013-03-07 02:29:00,
2013-03-06 20:34:00,35.0,28.0,30.33,NNW,337,4.0,7.0,74,0.00,,,0.00,Rainwise IP-100,2013-03-07 02:34:00,
2013-03-06 20:39:00,35.0,28.0,30.32,NE,45,10.0,10.0,74,0.00,,,0.00,Rainwise IP-100,2013-03-07 02:39:00,
2013-03-06 20:44:00,35.0,28.0,30.32,North,360,6.0,10.0,74,0.00,,,0.00,Rainwise IP-100,2013-03-07 02:44:00,
2013-03-06 20:49:00,35.0,28.0,30.33,North,360,7.0,7.0,76,0.00,,,0.00,Rainwise IP-100,2013-03-07 02:49:00,
2013-03-06 20:54:00,35.0,28.0,30.33,NE,45,6.0,10.0,75,0.00,,,0.00,Rainwise IP-100,2013-03-07 02:54:00,
2013-03-06 20:59:00,35.0,28.0,30.33,NE,45,6.0,9.0,75,0.00,,,0.00,Rainwise IP-100,2013-03-07 02:59:00,
2013-03-06 21:04:00,35.0,28.0,30.33,NE,45,6.0,6.0,75,0.00,,,0.00,Rainwise IP-100,2013-03-07 03:04:00,
2013-03-06 21:10:00,35.0,28.0,30.33,NE,45,3.0,9.0,77,0.00,,,0.00,Rainwise IP-100,2013-03-07 03:10:00,
2013-03-06 21:15:00,35.0,28.0,30.33,NNE,22,7.0,9.0,77,0.00,,,0.00,Rainwise IP-100,2013-03-07 03:15:00,
2013-03-06 21:20:00,34.0,28.0,30.33,North,360,6.0,10.0,76,0.00,,,0.00,Rainwise IP-100,2013-03-07 03:20:00,
2013-03-06 21:25:00,34.0,28.0,30.33,NE,45,7.0,9.0,76,0.00,,,0.00,Rainwise IP-100,2013-03-07 03:25:00,
2013-03-06 21:30:00,34.0,29.0,30.33,NNE,22,7.0,10.0,78,0.00,,,0.00,Rainwise IP-100,2013-03-07 03:30:00,
2013-03-06 21:35:00,34.0,28.0,30.33,North,360,7.0,10.0,77,0.00,,,0.00,Rainwise IP-100,2013-03-07 03:35:00,
2013-03-06 21:40:00,34.0,28.0,30.34,North,360,7.0,9.0,77,0.00,,,0.00,Rainwise IP-100,2013-03-07 03:40:00,
2013-03-06 21:45:00,34.0,28.0,30.34,NE,45,7.0,9.0,77,0.00,,,0.00,Rainwise IP-100,2013-03-07 03:45:00,
2013-03-06 21:50:00,34.0,28.0,30.34,North,360,7.0,10.0,77,0.00,,,0.00,Rainwise IP-100,2013-03-07 03:50:00,
2013-03-06 21:55:00,34.0,28.0,30.34,North,360,7.0,9.0,77,0.00,,,0.00,Rainwise IP-100,2013-03-07 03:55:00,
2013-03-06 22:00:00,34.0,28.0,30.33,NNE,22,8.0,10.0,77,0.00,,,0.00,Rainwise IP-100,2013-03-07 04:00:00,
2013-03-06 22:05:00,34.0,28.0,30.33,North,360,9.0,9.0,77,0.00,,,0.00,Rainwise IP-100,2013-03-07 04:05:00,
2013-03-06 22:10:00,34.0,28.0,30.33,NNE,22,7.0,10.0,77,0.00,,,0.00,Rainwise IP-100,2013-03-07 04:10:00,
2013-03-06 22:15:00,34.0,28.0,30.33,North,360,7.0,10.0,77,0.00,,,0.00,Rainwise IP-100,2013-03-07 04:15:00,
2013-03-06 22:20:00,34.0,28.0,30.33,North,360,7.0,13.0,77,0.00,,,0.00,Rainwise IP-100,2013-03-07 04:20:00,
2013-03-06 22:25:00,34.0,28.0,30.33,NE,45,7.0,10.0,77,0.00,,,0.00,Rainwise IP-100,2013-03-07 04:25:00,
2013-03-06 22:30:00,34.0,28.0,30.33,NNE,22,7.0,9.0,76,0.00,,,0.00,Rainwise IP-100,2013-03-07 04:30:00,
2013-03-06 22:35:00,33.0,26.0,30.33,North,360,7.0,7.0,75,0.00,,,0.00,Rainwise IP-100,2013-03-07 04:35:00,
2013-03-06 22:40:00,33.0,28.0,30.33,NNE,22,5.0,8.0,77,0.00,,,0.00,Rainwise IP-100,2013-03-07 04:40:00,
2013-03-06 22:45:00,33.0,26.0,30.33,North,360,6.0,7.0,75,0.00,,,0.00,Rainwise IP-100,2013-03-07 04:45:00,
2013-03-06 22:50:00,33.0,28.0,30.32,ENE,67,6.0,8.0,78,0.00,,,0.00,Rainwise IP-100,2013-03-07 04:50:00,
2013-03-06 22:55:00,33.0,26.0,30.32,NNE,22,6.0,9.0,76,0.00,,,0.00,Rainwise IP-100,2013-03-07 04:55:00,
2013-03-06 23:00:00,33.0,26.0,30.33,NE,45,5.0,10.0,75,0.00,,,0.00,Rainwise IP-100,2013-03-07 05:00:00,
2013-03-06 23:05:00,33.0,26.0,30.33,NNE,22,8.0,9.0,76,0.00,,,0.00,Rainwise IP-100,2013-03-07 05:05:00,
2013-03-06 23:10:00,33.0,26.0,30.33,NE,45,7.0,9.0,74,0.00,,,0.00,Rainwise IP-100,2013-03-07 05:10:00,
2013-03-06 23:15:00,33.0,26.0,30.33,NNE,22,8.0,10.0,76,0.00,,,0.00,Rainwise IP-100,2013-03-07 05:15:00,
2013-03-06 23:20:00,33.0,26.0,30.33,NNE,22,9.0,10.0,76,0.00,,,0.00,Rainwise IP-100,2013-03-07 05:20:00,
2013-03-06 23:25:00,33.0,28.0,30.33,NE,45,7.0,13.0,77,0.00,,,0.00,Rainwise IP-100,2013-03-07 05:25:00,
2013-03-06 23:30:00,33.0,28.0,30.33,NE,45,6.0,8.0,77,0.00,,,0.00,Rainwise IP-100,2013-03-07 05:30:00,
2013-03-06 23:35:00,33.0,28.0,30.33,North,360,9.0,9.0,78,0.00,,,0.00,Rainwise IP-100,2013-03-07 05:35:00,
2013-03-06 23:40:00,33.0,26.0,30.33,NNW,337,6.0,11.0,76,0.00,,,0.00,Rainwise IP-100,2013-03-07 05:40:00,
2013-03-06 23:45:00,33.0,28.0,30.33,NNE,22,6.0,8.0,77,0.00,,,0.00,Rainwise IP-100,2013-03-07 05:45:00,
2013-03-06 23:50:00,33.0,26.0,30.33,NNE,22,7.0,10.0,76,0.00,,,0.00,Rainwise IP-100,2013-03-07 05:50:00,
2013-03-06 23:55:00,33.0,26.0,30.33,NNE,22,10.0,12.0,76,0.00,,,0.00,Rainwise IP-100,2013-03-07 05:55:00,